Location: Boiro
(42.6475°N, 8.8834°W)
Time: 15:09:15
(UTC+01:00)

Vanguard 3 - Pass Details

Date: 08 December 2021
Orbit: 508 x 3260 km, 33.3° (Epoch: 20 January)

Event Time Altitude Azimuth Distance (km) Brightness Sun altitude
Rises 09:03:57 0° 277° (W) 7,222 11.4 0.9°
Reaches altitude 10° 09:09:21 10° 272° (W) 6,102 11.1 1.7°
Maximum altitude 09:25:54 42° 211° (SSW) 3,265 10.4 4.2°
Drops below altitude 10° 09:37:00 10° 145° (SE) 4,152 12.6 5.8°
Sets 09:39:56 0° 138° (SE) 4,811 13.4 6.2°
